Location: Newark
(48.1500°N, 2.9667°W)
Time: 02:38:20
(UTC+00:00)

A-11 Canister half - Pass Details

Date: 27 January 2020
Orbit: 1524 x 1684 km, 47.3° (Epoch: 26 February)

Event Time Altitude Azimuth Distance (km) Brightness Sun altitude
Rises 21:41:29 0° 283° (WNW) 4,718 12.3 -45.6°
Reaches altitude 10° 21:44:30 10° 281° (WNW) 3,750 11.5 -46.1°
Enters shadow 21:50:13 42° 271° (W) 2,132 9.8 -46.9°
Maximum altitude 21:53:58 72° 200° (SSW) 1,667 - -47.4°
Drops below altitude 10° 22:03:44 10° 119° (ESE) 3,869 - -48.8°
Sets 22:06:55 0° 117° (ESE) 4,874 - -49.2°
